Location: *
(50.9167°S, 179.4000°W)
Time: 20:41:49
(UTC+00:00)

Cosmos 1437 Rocket - Pass Details

Date: 03 March 2024
Orbit: 482 x 536 km, 81.2° (Epoch: 16 April)

Event Time Altitude Azimuth Distance (km) Brightness Sun altitude
Rises 16:44:22 0° 8° (N) 2,604 6.1 -8.0°
Reaches altitude 10° 16:46:32 10° 15° (NNE) 1,738 5.3 -7.7°
Maximum altitude 16:50:08 41° 85° (E) 777 4.2 -7.2°
Drops below altitude 10° 16:53:51 10° 155° (SSE) 1,798 6.1 -6.6°
Sets 16:56:07 0° 162° (SSE) 2,707 6.9 -6.3°
